Saturday, November 01, 2014
13:24 UTC
  |  Log In   |  Register Free
Airport Search:

Meyers-Diver'S Airport
(3TE)

Meyers-Diver'S Airport Diagram
No Airport Diagram Available

FAA data valid effective September 18, 2014 - November 13, 2014 (unless otherwise noted).

 
 
 
 
 
 
 
 
 
 
 
 
 
 

Current Aviation Weather for Meyers-Diver'S Airport (3TE)

METAR data is unavailable for 3TE. The nearest METAR location is at KADG (11.3 nm SW from 3TE).

The most recent METAR observation for KADG was updated at: 1309
METAR Summary (Translated METAR)
KADG
011253Z AUTO 01022G27KT 10SM FEW028 00/M05 A3029 RMK AO2 PK WND 02031/1240 SLP267 T00001050
(11.3 nm SW from 3TE)
KARB
011253Z 35014G21KT 10SM FEW026 FEW039 00/M05 A3028 RMK AO2 SLP261 T00001050
(14.7 nm NE from 3TE)
TAF
No TAF information found within 50 nm of KADG
  Airport Weather Conditions for 3TE

Current weather conditions are
not available for 3TE


The nearest NOAA weather station
is at ADG, (11.3 nm SW from 3TE)
  
 Current Weather at ADG
32° F
A Few Clouds and Breezy
North winds at 25.3 mph
ADG NOAA Radar

Pressure: 30.29 in
Humidity: 69%
Wind: from the North at 25.3 gusting to 31.1 MPH (22 gusting to 27 KT)
Dew Point: 23.0°F
Visibility: 10.00 mi


Airport Weather Forecast for 3TE

Translated METAR and TAF for KADG
Translated METAR for KADG (1320 UTC 01 November 2014)
found at http://aviationweather.gov/adds/metars/
 
METAR text: KADG 011253Z AUTO 01022G27KT 10SM FEW028 00/M05 A3029 RMK AO2 PK WND 02031/1240 SLP267 T00001050
Conditions at: KADG (ADRIAN , MI, US) observed 1253 UTC 01 November 2014
Temperature: 0.0°C (32°F)
Dewpoint: -5.0°C (23°F) [RH = 69%]
Pressure (altimeter): 30.29 inches Hg (1025.8 mb)
[Sea-level pressure: 1026.7 mb]
Winds: from the N (10 degrees) at 25 MPH (22 knots; 11.4 m/s)
gusting to 31 MPH (27 knots; 14.0 m/s)
Visibility: 10 or more miles (16+ km)
Ceiling: at least 12,000 feet AGL
Clouds: few clouds at 2800 feet AGL
Weather: automated observation with no human augmentation;
there may or may not be significant weather present at this time
Translated TAF for KADG

There is no translated TAF available for this airport

Find All Airport Services Find A Hotel Find A Rental Car Find A Golf Course Find A Restaurant $100 Hamburger



FBO's on the Field
FBO Company Facility Photos Services Transportation Aviation Fuel Prices: Prices include tax
Catering Weather Repair Courtesy Rental Type 100LL JetA JetA+ MOGAS 8087
 
Village of Boyceville

This FBO has not yet been rated
FS:Independent
Last Updated: Oct-03
Login to update fuel prices
SS:
Contact Village of BoycevilleMore FBO Information
 
Add another FBO Facility Photos Catering Weather Repair Courtesy Rental Type 100LL JetA JetA+ MOGAS 8087
Services Transportation Aviation Fuel Prices: Prices include tax


model-print
model-print
model-print
model-print